Location: Bonnelle
(50.2108°N, 1.7477°E)
Time: 01:17:52
(UTC+00:00)

Daily predictions for brighter satellites

Satellite Brightness Start Highest point End
(mag) Time Altitude Azimuth Time Altitude Azimuth Time Altitude Azimuth
GENESIS II 4.4 00:03:30 10° NW 00:07:31 69° NE 00:07:31 69° NE
Cosmos 2333 4.2 00:03:17 10° NNW 00:09:05 71° WSW 00:10:14 55° S
Cosmos 2219 Rocket 2.1 00:03:54 10° NNW 00:09:38 87° ENE 00:11:13 50° SSE
Cosmos 1464 Rocket 4.2 00:08:47 43° SSE 00:10:37 61° E 00:16:45 10° NNE
Cosmos 836 Rocket 4.4 00:05:36 10° NNW 00:10:48 75° WSW 00:11:32 63° SSW
Lacrosse 4 Rocket 1.6 00:13:01 60° E 00:13:01 60° E 00:16:52 10° NE
Cosmos 1782 Rocket 3.6 00:12:54 61° ESE 00:13:00 61° E 00:17:18 10° NNE
Cosmos 2233 Rocket 4.3 00:10:46 39° SW 00:13:00 58° WNW 00:19:16 10° N
FALCON 9 DEB 4.0 00:15:49 48° NNE 00:15:49 48° NNE 00:18:44 10° ENE
Cosmos 2322 Rocket 3.8 00:13:12 10° NW 00:17:15 20° W 00:17:43 20° WSW
Cosmos 1354 Rocket 4.4 00:16:38 45° SE 00:17:22 48° ESE 00:22:30 10° NNE
SL-4 R/B 4.1 00:22:19 14° E 00:22:19 14° E 00:22:51 10° E
Cosmos 968 Rocket 3.3 00:19:13 64° S 00:19:58 81° ESE 00:25:07 10° NNE
Landsat 4 3.9 00:16:39 10° NNE 00:20:07 68° NE 00:20:07 68° NE
SL-16 R/B 4.4 00:16:04 10° NNW 00:20:37 24° NE 00:25:07 10° E
Cosmos 1908 Rocket 3.6 00:21:10 63° W 00:21:26 65° WNW 00:25:49 10° N
COSMOS 2428 2.6 00:22:00 10° NNW 00:27:45 79° WSW 00:29:11 52° SSE
Nadezhda 4 Rocket 4.0 00:26:37 10° N 00:32:58 76° E 00:35:18 41° SSE
SL-16 R/B 3.5 00:28:36 17° SE 00:33:04 43° ENE 00:38:56 10° N
Cosmos 2360 Rocket 3.3 00:28:27 10° NW 00:33:08 27° WSW 00:33:24 27° WSW
CENTAUR R/B 3.6 00:27:31 10° WSW 00:33:39 46° NNW 00:40:54 10° NE
CZ-2D R/B 3.8 00:31:33 10° NE 00:36:00 25° E 00:38:05 20° ESE
Cosmos 2034 Rocket 4.1 00:35:41 43° SSE 00:37:44 69° E 00:44:00 10° NNE
Cosmos 1513 Rocket 4.5 00:37:32 46° SSW 00:39:37 85° W 00:46:06 10° N
USA 267 4.0 00:33:20 10° E 00:39:39 53° N 00:45:59 10° WNW
Cosmos 1072 Rocket 4.4 00:39:08 47° SSW 00:41:00 79° W 00:47:09 10° N
Cosmos 1743 4.0 00:41:15 30° WNW 00:41:22 30° WNW 00:44:52 10° N
GEOS 3 Rocket 4.0 00:36:43 10° NE 00:41:57 47° SE 00:42:46 44° SSE
Okean 2 Rocket 3.5 00:41:46 47° ESE 00:42:20 50° E 00:46:41 10° NNE
Cosmos 1271 Rocket 4.4 00:39:43 10° NW 00:42:07 23° WNW 00:42:07 23° WNW
Meteor 2-9 Rocket 4.1 00:41:29 53° SSW 00:42:52 85° WNW 00:48:36 10° NNE
ADEOS II 4.5 00:42:08 10° ENE 00:44:07 12° E 00:46:06 10° ESE
Cosmos 1092 Rocket 4.3 00:38:50 10° N 00:45:03 60° ENE 00:48:01 31° SE
Cosmos 1544 3.9 00:45:29 41° WNW 00:45:29 41° WNW 00:48:44 10° N
Cosmos 1975 Rocket 3.2 00:41:00 10° NNW 00:45:25 57° W 00:45:36 56° WSW
Cosmos 1975 3.1 00:45:31 56° WNW 00:45:32 56° WNW 00:49:31 10° N
Cosmos 1980 3.9 00:41:06 10° NNW 00:46:48 68° ENE 00:49:51 28° SE
Cosmos 2297 Rocket 3.5 00:45:36 24° SE 00:47:06 27° ESE 00:51:46 10° NE
Cosmos 2219 4.3 00:45:50 28° SE 00:47:13 31° ESE 00:52:06 10° NE
Cosmos 2333 Rocket 2.5 00:41:51 10° NW 00:47:24 48° WSW 00:48:12 45° SW
PSLV R/B 3.8 00:43:04 10° N 00:47:40 68° WNW 00:48:26 57° SW
COSMOS 2487 4.0 00:48:08 27° WNW 00:48:10 27° WNW 00:51:11 10° N
Helios 1B rocket 2.2 00:44:31 10° NNE 00:48:39 90° ESE 00:48:49 82° SSW
Sich 1 Rocket 3.4 00:48:43 74° S 00:49:07 88° E 00:53:33 10° N
Meteor 1-29 3.4 00:49:08 10° NNE 00:52:12 57° ENE 00:52:12 57° ENE
Cosmos 44 Rocket 3.2 00:49:18 10° NW 00:54:16 72° SW 00:55:08 57° S
Cosmos 783 Rocket 4.4 00:49:15 10° NNW 00:54:27 68° WSW 00:55:27 55° SSW
Cosmos 2237 Rocket 2.3 00:51:10 10° NNW 00:56:52 75° ENE 00:59:51 29° SE
Cosmos 1503 Rocket 4.1 00:56:39 49° SW 00:58:06 76° WNW 01:03:30 10° NNE
Cosmos 1300 Rocket 3.6 00:57:53 60° SE 00:58:23 66° E 01:02:41 10° NNE
DELTA 2 DEB (DPAF) 4.4 01:00:27 42° SE 01:01:45 63° ENE 01:06:09 10° N
CZ-4 R/B 4.3 00:59:39 10° N 01:04:30 56° WNW 01:05:48 43° WSW
CZ-4C R/B 4.1 01:04:19 34° E 01:05:00 39° ENE 01:08:19 10° N
Spot 1 3.9 01:06:48 60° SE 01:07:31 80° ENE 01:11:38 10° NNW
Cosmos 2151 Rocket 3.6 01:12:29 56° SSE 01:13:18 72° E 01:17:42 10° NNE
Meteor 1-12 Rocket 4.3 01:11:28 42° S 01:13:37 86° E 01:19:40 10° NNE
Timation 2 Rocket 3.9 01:14:34 41° S 01:16:48 72° ESE 01:22:50 10° NE
Cosmos 1707 3.0 01:13:22 10° NNW 01:17:05 52° W 01:17:05 52° W
In-Cosmos 22 4.1 01:11:35 10° NNW 01:17:15 83° W 01:19:15 41° S
Cosmos 1805 4.4 01:24:26 31° SE 01:25:24 36° E 01:29:00 10° NNE
DNEPR-1 R/B 4.2 01:19:53 10° NW 01:26:02 77° NE 01:30:57 10° SE
ERBS 2.6 01:23:00 10° NW 01:26:16 62° NNE 01:29:32 10° ESE
SJ 16-02 3.2 01:25:10 17° SE 01:26:55 22° E 01:30:17 10° NE
Meteor 2-13 Rocket 4.4 01:25:22 10° NNW 01:31:28 75° W 01:34:11 35° S
Cosmos 1538 Rocket 3.9 01:28:44 10° NNW 01:33:54 72° WSW 01:35:51 38° S
Cosmos 2195 Rocket 4.5 01:27:47 10° NNW 01:34:05 73° W 01:37:03 33° S
Cosmos 1025 Rocket 3.4 01:31:42 10° NNW 01:35:46 43° W 01:36:08 42° WSW
Cosmos 2227 Rocket 2.6 01:33:34 33° SSE 01:35:51 52° ESE 01:41:22 10° NE
Resurs 1-4 Rocket 2.2 01:31:54 10° NNE 01:37:12 72° ESE 01:39:24 36° S
MOZ.5/SAFIR/RUBIN 5/SL-8 3.9 01:36:59 45° SSW 01:38:06 56° W 01:42:48 10° NNW
Cosmos 1674 2.5 01:35:26 10° N 01:39:10 88° ENE 01:39:47 61° SSE
SL-19 R/B 4.4 01:34:49 10° NNE 01:40:51 70° WNW 01:43:22 35° SW
NOSS 0 Rocket 4.4 01:37:10 10° NW 01:42:57 41° WSW 01:44:40 34° SW
Cosmos 1733 4.2 01:42:54 30° SE 01:44:10 40° E 01:47:47 10° NNE
Cosmos 1437 4.4 01:41:57 10° NW 01:43:28 21° WNW 01:43:28 21° WNW
ATLAS 3B R/B 3.7 01:40:56 11° W 01:46:53 40° NNW 01:53:11 10° NE
Cosmos 1536 Rocket 4.0 01:43:44 10° NNW 01:47:51 42° W 01:48:26 39° WSW
Cosmos 2026 Rocket 3.9 01:42:08 10° NNW 01:48:10 67° W 01:51:09 31° SSW
Cosmos 2279 Rocket 4.2 01:44:46 26° S 01:48:24 67° E 01:54:33 10° NNE
USA 215 3.8 01:42:16 10° ENE 01:48:28 43° SE 01:51:29 28° S
COBE Rocket 4.0 01:47:33 21° SSE 01:50:34 67° ENE 01:55:12 10° N
Lacrosse 4 Rocket 3.3 01:49:19 15° W 01:51:43 23° NW 01:55:07 10° NNE
FALCON 9 DEB 3.5 01:49:06 10° WNW 01:52:36 66° NNE 01:56:04 10° E
Cosmos 2219 Rocket 3.8 01:49:10 10° WNW 01:52:50 18° W 01:52:54 18° W
Cosmos 1634 Rocket 4.0 01:50:26 32° SSW 01:53:32 76° W 01:59:49 10° N
Cosmos 2344 4.4 01:44:53 10° NW 01:54:15 66° SW 02:07:16 10° SSE
Cosmos 2082 4.4 01:53:29 24° SSE 01:56:28 44° ESE 02:01:46 10° NE
SL-4 R/B 1.3 01:58:02 42° W 01:59:02 72° SSW 02:02:26 10° ESE
Cosmos 2112 Rocket 4.5 01:54:11 10° NNW 01:59:24 62° ENE 02:04:33 10° SE
Meteor 1-24 Rocket 3.7 01:59:01 10° N 02:04:35 79° ENE 02:08:55 16° SSE
SL-16 R/B 2.2 01:59:46 10° NNW 02:05:31 88° WSW 02:11:13 10° SSE
CBERS-1 4.4 02:00:57 10° NNE 02:06:01 59° E 02:09:09 23° S
Meteor 2-5 Rocket 3.6 02:02:37 10° NNW 02:08:18 77° W 02:11:59 22° S
COSMOS 2428 4.5 02:08:07 10° WNW 02:11:05 14° W 02:11:10 14° W
ARIANE 5 R/B 3.8 02:08:35 10° NNE 02:13:23 35° E 02:18:02 11° SSE
Cosmos 1898 Rocket 4.5 02:11:41 17° SSE 02:15:17 40° ESE 02:20:09 10° NE
NPP 3.7 02:10:04 10° NNE 02:15:26 71° WNW 02:18:23 27° SSW
H-2A R/B 4.5 02:12:17 10° ESE 02:15:27 22° ENE 02:18:38 10° N
IDEFIX/ARIANE 42P 4.4 02:11:49 10° NE 02:16:08 26° E 02:20:26 10° SSE
CZ-2D R/B 2.4 02:11:02 10° N 02:16:27 61° WNW 02:19:24 27° SW
SL-16 R/B 3.0 02:13:43 26° SSW 02:16:42 42° W 02:22:38 10° NNW
Cosmos 1680 Rocket 3.4 02:11:57 10° NNW 02:17:14 87° WSW 02:22:27 10° SSE
KORONAS-FOTON 4.5 02:14:44 10° NNW 02:18:13 35° W 02:18:47 33° WSW
GEOS 3 Rocket 4.4 02:14:47 10° NE 02:19:59 49° NW 02:23:51 18° WSW
NOSS 3-1 (C) 4.4 02:17:24 17° S 02:20:59 34° ESE 02:26:32 10° NE
AQUA 3.8 02:17:12 10° N 02:21:57 70° WNW 02:24:26 28° SSW
USA 267 3.3 02:15:52 10° ESE 02:22:26 89° NE 02:29:01 10° WNW
Cosmos 1607 4.0 02:17:48 10° NW 02:24:12 67° SW 02:30:35 10° SSE
ADEOS II 2.2 02:19:26 10° NNE 02:24:44 75° ESE 02:28:24 20° S
Cosmos 1766 3.5 02:26:32 33° SW 02:28:02 55° WNW 02:31:52 10° N
IRS-1D 3.5 02:23:32 10° NNE 02:28:36 89° W 02:31:54 23° SSW
Cosmos 2263 Rocket 4.1 02:25:19 10° SSE 02:29:31 22° ESE 02:33:43 10° NE
Meteor 1-22 Rocket 4.0 02:27:11 22° SSW 02:30:39 89° WNW 02:36:01 10° NNE
Cosmos 2297 Rocket 2.5 02:27:24 24° SW 02:30:46 60° WNW 02:36:24 10° NNE
Cosmos 2219 3.6 02:27:45 23° WSW 02:31:08 52° NW 02:36:39 10° NNE
Okean 1-7 Rocket 3.5 02:26:48 10° N 02:31:14 88° E 02:35:04 14° S
IRS-1C 4.4 02:28:59 10° NNE 02:34:19 66° ESE 02:38:43 15° S
TIMED 4.5 02:31:22 10° NNW 02:35:42 63° WSW 02:39:36 13° S
Uosat 12 SS-18 rocket 4.5 02:33:34 23° WSW 02:36:32 60° NW 02:40:55 10° NE
Cosmos 1626 2.4 02:33:44 10° NNW 02:37:20 48° W 02:38:56 28° SSW
Cosmos 2266 Rocket 4.0 02:31:43 10° N 02:38:09 84° W 02:44:26 10° S
Cosmos 1655 Rocket 4.0 02:32:45 10° NNW 02:38:59 65° W 02:44:28 13° S
Meteor 1-28 Rocket 3.2 02:36:22 12° SSE 02:39:54 84° ENE 02:43:44 10° NNW
Okean 1 Rocket 4.0 02:38:14 23° WSW 02:40:08 34° WNW 02:44:08 10° N
Cosmos 2237 Rocket 3.4 02:36:13 10° NW 02:40:20 21° W 02:41:37 19° WSW
CZ-4B R/B 3.5 02:37:08 10° N 02:41:52 61° WNW 02:44:51 22° SW
Cosmos 1470 2.9 02:41:43 18° S 02:44:33 74° E 02:48:33 10° NNE
Cosmos 1603 4.4 02:39:18 10° NNW 02:45:00 60° NE 02:50:39 10° SE
SL-08 R/B 3.4 02:44:21 10° S 02:49:17 73° WSW 02:54:16 10° NNW
Cosmos 2098 Rocket 3.5 02:48:35 10° NNW 02:53:11 64° W 02:58:58 10° S
USA 229 DEB 4.2 02:48:34 14° SSW 02:53:58 51° ESE 03:00:35 10° NE
USA 229 4.2 02:48:40 14° SSW 02:54:03 51° ESE 03:00:38 10° NE
Cosmos 158 Rocket 4.4 02:49:54 10° NW 02:54:59 45° WSW 03:00:05 10° S
SL-14 R/B 4.2 02:58:18 10° NNW 03:01:46 30° W 03:03:48 19° SW
ERBS 3.4 02:59:40 10° W 03:03:33 18° SSW 03:04:53 10° S
NOSS 3-1 (A) 4.2 03:00:07 10° S 03:05:10 42° ESE 03:11:04 10° NE
SJ 16-02 1.8 03:02:10 18° SW 03:05:12 49° WNW 03:09:30 10° NNE
CSL-04 DEB 4.3 03:06:49 10° SSE 03:10:44 86° ENE 03:14:41 10° NNW
Cosmos 1809 Rocket 4.4 03:06:07 10° NNW 03:12:13 73° W 03:18:18 10° S
Cosmos 1943 3.4 03:06:39 10° NNW 03:12:18 77° ENE 03:17:55 10° SSE
IRS-P3 4.3 03:07:54 10° N 03:13:10 60° WNW 03:17:57 13° SW
Cosmos 1626 Rocket 3.5 03:09:14 10° NNW 03:13:35 74° W 03:17:52 10° S
Cosmos 1455 Rocket 3.5 03:11:32 15° SW 03:14:57 47° WNW 03:19:17 10° N
Resurs 1-4 Rocket 3.7 03:12:34 10° N 03:16:32 22° WNW 03:20:28 10° WSW
Cosmos 1758 3.4 03:13:24 13° SSW 03:16:53 61° WNW 03:20:53 10° N
Spot 4 Rocket 4.1 03:11:53 10° NNE 03:17:06 83° ESE 03:22:16 10° SSW
Meteor 1-21 Rocket 4.2 03:11:42 10° NNW 03:17:19 86° WSW 03:22:50 10° S
Cosmos 2227 Rocket 3.2 03:15:24 12° WSW 03:20:10 34° NW 03:25:20 10° NNE
SeaSat 1 3.6 03:16:46 10° NE 03:21:26 40° ESE 03:26:03 10° S
CZ-2C R/B 3.1 03:21:20 10° NNE 03:25:15 68° ESE 03:29:03 10° S
Landsat 5 3.3 03:21:34 10° SSE 03:25:29 90° NNW 03:29:32 10° NNW
CZ-2D R/B 3.4 03:22:46 10° N 03:26:52 75° WNW 03:30:50 10° SSW
Cosmos 1461 3.1 03:23:26 13° SW 03:27:17 73° NW 03:31:54 10° NE
FALCON 9 DEB 3.6 03:26:16 10° WNW 03:29:32 39° SSW 03:32:47 10° SE
Cosmos 1758 Rocket 3.9 03:27:13 10° N 03:31:32 68° ENE 03:35:49 10° SSE
USA 215 3.4 03:25:16 10° ENE 03:31:49 79° NNW 03:38:22 10° WSW
ATLAS CENTAUR R/B 4.0 03:31:04 10° SE 03:32:59 13° ESE 03:34:51 10° E
Cosmos 1340 Rocket 3.4 03:29:56 11° SW 03:33:30 41° WNW 03:37:17 10° N
Cosmos 724 4.4 03:29:15 10° NW 03:35:07 57° WSW 03:41:04 10° SSE
ERS-2 2.0 03:33:06 10° S 03:36:44 75° WSW 03:40:24 10° NNW
Cosmos 2228 4.4 03:33:46 10° SSE 03:37:52 41° E 03:42:00 10° NNE
SL-4 R/B 3.0 03:35:41 10° W 03:38:08 18° SW 03:40:35 10° S
Cosmos 1953 2.4 03:35:49 10° SSW 03:39:48 66° WNW 03:43:51 10° N
Cosmos 1726 2.3 03:39:08 10° SSW 03:42:44 52° WNW 03:46:21 10° N
Cosmos 1908 3.6 03:41:04 10° S 03:44:56 69° E 03:48:51 10° NNE
Meteor 1-16 Rocket 4.2 03:40:44 10° S 03:46:06 86° E 03:51:40 10° NNE
SL-16 R/B 3.7 03:45:23 10° WNW 03:48:48 17° W 03:52:14 10° SW
H-2A R/B 2.3 03:47:15 10° S 03:51:12 44° W 03:55:09 10° NNW
ARIANE 5 R/B 3.3 03:47:41 10° N 03:52:31 40° WNW 03:57:22 10° SW
Cosmos 2150 Rocket 4.5 03:47:30 10° S 03:52:35 62° ESE 03:57:45 10° NNE
Cosmos 1937 Rocket 4.0 03:47:39 10° SW 03:52:48 50° WNW 03:58:01 10° NNE
Cosmos 1825 Rocket 3.6 03:49:46 10° N 03:54:08 90° W 03:58:28 10° S
CZ-2D R/B 4.2 03:53:01 10° NNW 03:55:27 13° NW 03:57:54 10° WNW
IDEFIX/ARIANE 42P 2.9 03:50:58 10° N 03:56:01 53° WNW 04:01:03 10° SW
